Regional Weather Roundup
Issued by NWS

Home | Current Version | Previous Version | Graphics & Text | Print | Product List | Glossary On
Versions: 1 2 3 4 5 6 7 8 9 10 11 12 13 14 15 16 17 18 19 20 21 22 23 24 25 26 27 28 29 30 31 32 33 34 35 36 37 38 39 40 41 42 43 44 45 46 47 48 49 50
000
ASUS43 KOAX 220002
RWRNE

WEATHER ROUNDUP FOR NEBRASKA
NATIONAL WEATHER SERVICE OMAHA NE
700 PM CDT SUN MAY 21 2017

NOTES: SATELLITE DATA IS BEING USED TO AUGMENT CLOUD COVER ABOVE
       12000 FEET.
       "FAIR" INDICATES FEW OR NO CLOUDS BELOW 12,000 FEET WITH NO
       SIGNIFICANT WEATHER AND/OR OBSTRUCTIONS TO VISIBILITY.

  * THESE STATIONS DO NOT REPORT WEATHER SUCH AS RAIN...SNOW OR FOG.

NEZ001>004-019>022-054>056-220100-
NEBRASKA PANHANDLE

CITY           SKY/WX    TMP DP  RH WIND       PRES   REMARKS
SCOTTSBLUFF    CLOUDY    60  50  69 NW13      30.14R
6HR MIN TEMP:  50; 6HR MAX TEMP:  65; 6HR PCP:  0.25;

ALLIANCE       CLOUDY    58  45  62 SW7       30.10F
6HR MIN TEMP:  48; 6HR MAX TEMP:  64; 6HR PCP:  0.08;

CHADRON        MOSUNNY   62  40  44 NW16G24   30.10R
6HR MIN TEMP:  59; 6HR MAX TEMP:  67;

GORDON         FAIR      59  45  58 CALM      30.07S
6HR MIN TEMP:  54; 6HR MAX TEMP:  65; 6HR PCP:  0.01;

KIMBALL        CLOUDY    57  41  55 NW12      30.17F
SIDNEY         LGT RAIN  54  46  74 N7        30.17S
6HR MIN TEMP:  52; 6HR MAX TEMP:  65; 6HR PCP:  0.02;

$$

NEZ057>060-069>072-079>082-220100-
SOUTHWEST NEBRASKA

CITY           SKY/WX    TMP DP  RH WIND       PRES   REMARKS
NORTH PLATTE   CLOUDY    66  46  48 W13       30.08F
6HR MIN TEMP:  63; 6HR MAX TEMP:  71;

IMPERIAL       PTSUNNY   66  44  45 CALM      30.09F
6HR MIN TEMP:  63; 6HR MAX TEMP:  70;

LEXINGTON      SUNNY     68  37  32 W12       30.07S
MCCOOK         MOSUNNY   72  40  31 N12       30.07F
6HR MIN TEMP:  68; 6HR MAX TEMP:  74;

OGALLALA       CLOUDY    63  45  51 NW7       30.12S
$$

NEZ005>010-023>029-035>040-094-220100-
NORTH CENTRAL NEBRASKA

CITY           SKY/WX    TMP DP  RH WIND       PRES   REMARKS
VALENTINE      PTSUNNY   68  34  28 NW15      30.02S
6HR MIN TEMP:  65; 6HR MAX TEMP:  71;

AINSWORTH      MOSUNNY   66  37  33 W9        30.03S
BROKEN BOW     SUNNY     68  40  35 NW8       30.05F
6HR MIN TEMP:  63; 6HR MAX TEMP:  69;

O`NEILL        SUNNY     66  32  27 NW9       30.03F
ORD            SUNNY     67  35  30 W10       30.03F
6HR MIN TEMP:  62; 6HR MAX TEMP:  68;

$$

NEZ041-046>049-061>064-073>077-083>087-220100-
SOUTH CENTRAL NEBRASKA

CITY           SKY/WX    TMP DP  RH WIND       PRES   REMARKS
GRAND ISLAND   SUNNY     68  39  34 NW14      30.06F
6HR MIN TEMP:  64; 6HR MAX TEMP:  70;

AURORA         SUNNY     69  36  30 NW13      30.06S
HASTINGS       SUNNY     69  39  33 NW9       30.07F
6HR MIN TEMP:  64; 6HR MAX TEMP:  71;

HEBRON         SUNNY     70  40  34 NW3       30.06S
HOLDREGE       SUNNY     69  37  30 NW7       30.07S
KEARNEY *      SUNNY     70  37  30 NW7       30.07S
YORK           SUNNY     68  39  34 NW13      30.06S
$$

NEZ011>018-030>034-042>045-220100-
NORTHEAST NEBRASKA

CITY           SKY/WX    TMP DP  RH WIND       PRES   REMARKS
NORFOLK        SUNNY     65  37  35 NW10      30.03S
6HR MIN TEMP:  59; 6HR MAX TEMP:  66;

ALBION         SUNNY     67  38  34 CALM      30.04S
BLAIR          MOSUNNY   65  42  43 NW12      30.05S
FREMONT        SUNNY     65  40  39 NW14      30.05S
TEKAMAH        SUNNY     64  44  48 NW13      30.04F
6HR MIN TEMP:  55; 6HR MAX TEMP:  65;

$$

NEZ050>053-065>068-078-088>093-220100-
SOUTHEAST NEBRASKA

CITY           SKY/WX    TMP DP  RH WIND       PRES   REMARKS
LINCOLN        SUNNY     70  39  32 NW9       30.06S
6HR MIN TEMP:  63; 6HR MAX TEMP:  70;

OMAHA EPPLEY   MOSUNNY   66  41  40 NW13      30.05R
6HR MIN TEMP:  59; 6HR MAX TEMP:  69;

BEATRICE       SUNNY     69  44  40 NW3       30.07S
FALLS CITY     SUNNY     67  42  40 NW12      30.07S
6HR MIN TEMP:  62; 6HR MAX TEMP:  68;

NEBRASKA CITY  SUNNY     66  35  30 NW7G17    30.07R
$$

NEZ044-045-051>053-067-220100-
OMAHA AREA

CITY           SKY/WX    TMP DP  RH WIND       PRES   REMARKS
OMAHA EPPLEY   MOSUNNY   66  41  40 NW13      30.05R
6HR MIN TEMP:  59; 6HR MAX TEMP:  69;

BLAIR          MOSUNNY   65  42  43 NW12      30.05S
FREMONT        SUNNY     65  40  39 NW14      30.05S
OFFUTT AFB     SUNNY     66  40  38 W13       30.04
WAHOO          FAIR      66  38  34 N10       30.05S
$$




USA.gov is the U.S. government's official web portal to all federal, state and local government web resources and services.